Location: Arclight Observatory
(36.5667°N, 87.3333°W)
Time: 09:05:57
(UTC-06:00)

Hubble Space Telescope - Visible Passes

Search period start: 01 March 2015 00:00
Search period end: 11 March 2015 01:00
Orbit: 543 x 548 km, 28.5° (Epoch: 28 February)

Date Brightness Start Highest point End Pass type
(mag) Time Alt. Az. Time Alt. Az. Time Alt. Az.
01 Mar 2.2 04:35:26 26° S 04:35:34 26° S 04:39:05 10° ESE visible
02 Mar 2.3 04:27:42 26° S 04:27:42 26° S 04:30:50 10° ESE visible
03 Mar 2.5 04:19:59 24° SSE 04:19:59 24° SSE 04:22:33 10° SE visible
04 Mar 2.8 04:12:16 20° SSE 04:12:16 20° SSE 04:14:13 10° SE visible
04 Mar 3.0 05:49:23 10° SW 05:51:34 14° SSW 05:53:41 10° SSE visible
05 Mar 3.1 04:04:36 16° SSE 04:04:36 16° SSE 04:05:49 10° SE visible
05 Mar 3.1 05:41:57 10° SW 05:43:15 11° SSW 05:44:28 10° S visible
06 Mar 3.5 03:56:59 12° SE 03:56:59 12° SE 03:57:21 10° SE visible
